Home   Weather   Dar es Salaam   Past weeks

Flag for Tanzania Past Weather in Dar es Salaam, Tanzania — Yesterday and Last 2 Weeks

81 °F

Partly sunny.

Feels Like: 86 °F
Forecast: 75 / 86 °F
Wind: No wind

Location: Dar Es Salaam Airport

Current Time: Oct 28, 2016 at 9:21:43 AM

Latest Report: Oct 28, 2016 at 8:00 AM

Visibility: N/A

Pressure: 30.04 "Hg

Humidity: 84%

Dew Point: 75 °F

Location of Dar es SalaamLocation

Past Weather in Dar es Salaam — Graph


Dar es Salaam Temperature Yesterday

Maximum temperature yesterday: 90 °F (at 1:00 PM)
Minimum temperature yesterday: 72 °F (at 6:00 AM)
Average temperature yesterday: 83 °F

High & Low Weather Summary for the Past Weeks

High91 °F (Oct 19, 1:00 PM)100% (Oct 14, 6:00 AM)30.09 "Hg (Oct 14, 6:00 AM)
Low68 °F (Oct 14, 6:00 AM)38% (Oct 19, 3:00 PM)29.80 "Hg (Oct 26, 5:00 PM)
Average81 °F74%29.96 "Hg
* Reported Oct 13 7:00 AM — Oct 28 7:00 AM, Dar es Salaam, Weather by CustomWeather, © 2016

Note: Actual official high and low records may vary slightly from our data, if they occured in-between our weather recording intervals... More about our weather records


Dar es Salaam Weather History for the Previous 24 Hours

Scroll right to see more
Time TempWeatherWind HumidityBarometerVisibility
7:00 AM
Fri, Oct 28
75 °FScattered clouds.No wind89%30.01 "HgN/A
6:00 AM72 °FScattered clouds.No wind94%29.98 "HgN/A
12:00 AM75 °FPassing clouds.No wind89%29.95 "HgN/A
11:00 PM
Thu, Oct 27
75 °FPassing clouds.No wind94%29.98 "HgN/A
10:00 PM77 °FPassing clouds.5 mph89%29.95 "HgN/A
9:00 PM77 °FPassing clouds.6 mph89%29.95 "HgN/A
8:00 PM79 °FPassing clouds.9 mph84%29.92 "HgN/A
6:00 PM82 °FPassing clouds.14 mph70%29.89 "HgN/A
5:00 PM86 °FPassing clouds.14 mph66%29.86 "HgN/A
4:00 PM90 °FPassing clouds.20 mph59%29.86 "HgN/A
3:00 PM90 °FPassing clouds.21 mph59%29.86 "HgN/A
2:00 PM90 °FPassing clouds.17 mph59%29.86 "HgN/A
1:00 PM90 °FScattered clouds.14 mph63%29.92 "HgN/A
12:00 PM88 °FScattered clouds.13 mph62%29.92 "HgN/A
11:00 AM86 °FPartly sunny.12 mph70%29.95 "HgN/A
10:00 AM86 °FPartly sunny.8 mph79%29.98 "HgN/A
9:00 AM82 °FPartly sunny.8 mph79%29.98 "HgN/A
Weather by CustomWeather, © 2016

See weather overviewHow to use our weather pages